Date String (YYYY-MM-DD hh:mm:ss) UTC,Instrument flags,Ambient pressure (hPa),Sample flow (lpm),Bypass flow (lpm),Sample temperature (°C),Ambient temperature (°C),ASC tube jacket temperature (°C),LED temperature (°C),Box temperature (°C),Sample RH (%),Span deviation,Mass concentration (μg/m³),Mass concentration (μg/m³),Mass concentration (μg/m³)
DateTimeUTC,F1_M11,P_M11,Q1_M11,Q2_M11,T1_M11,T2_M11,T3_M11,T4_M11,T5_M11,U1_M11,ZSPAN_M11,X0_M11,X2_M11,X1_M11
2021-10-04 12:00:00,,0832.2,5.00,0.00,29.5,28.5,00.0,38.7,31.2,11.4,0000.0,0006.61,0003.35,0003.00
2021-10-04 12:01:00,,0832.2,5.00,0.00,29.5,28.4,00.0,38.7,31.2,11.4,0000.0,0006.66,0003.36,0003.01
2021-10-04 12:02:00,,0832.2,5.00,0.00,29.5,28.4,00.0,38.7,31.2,11.4,0000.0,0006.81,0003.39,0003.02
2021-10-04 12:03:00,,0832.2,5.01,0.00,29.5,28.4,00.0,38.7,31.2,11.4,0000.0,0006.90,0003.40,0003.02
2021-10-04 12:04:00,,0832.3,5.00,0.00,29.5,28.5,00.0,38.7,31.2,11.5,0000.0,0007.04,0003.38,0003.03
2021-10-04 12:05:00,,0832.3,5.00,0.00,29.5,28.5,00.0,38.7,31.2,11.5,0000.0,0007.08,0003.38,0003.02
2021-10-04 12:06:00,,0832.3,5.01,0.00,29.5,28.4,00.0,38.7,31.2,11.5,0000.0,0007.08,0003.38,0003.01
2021-10-04 12:07:00,,0832.3,5.00,0.00,29.5,28.4,00.0,38.7,31.2,11.5,0000.0,0007.13,0003.38,0003.00
2021-10-04 12:08:00,,0832.3,4.99,0.00,29.5,28.4,00.0,38.7,31.2,11.6,0000.0,0006.67,0003.37,0002.99
2021-10-04 12:09:00,,0832.3,5.00,0.00,29.5,28.5,00.0,38.7,31.2,11.5,0000.0,0006.28,0003.36,0002.99
2021-10-04 12:10:00,,0832.3,5.00,0.00,29.5,28.5,00.0,38.7,31.2,11.5,0000.0,0005.89,0003.37,0002.99
2021-10-04 12:11:00,,0832.3,5.01,0.00,29.5,28.5,00.0,38.7,31.2,11.5,0000.0,0005.94,0003.39,0003.00
2021-10-04 12:12:00,,0832.2,5.01,0.00,29.5,28.4,00.0,38.7,31.1,11.5,0000.0,0006.47,0003.40,0002.99
2021-10-04 12:13:00,,0832.3,4.98,0.00,29.5,28.4,00.0,38.7,31.2,11.5,0000.0,0006.59,0003.41,0003.01
2021-10-04 12:14:00,,0832.3,5.00,0.00,29.5,28.4,00.0,38.7,31.1,11.6,0000.0,0006.53,0003.40,0003.02
2021-10-04 12:15:00,,0832.3,4.99,0.00,29.5,28.4,00.0,38.7,31.2,11.6,0000.0,0006.40,0003.40,0003.01
2021-10-04 12:16:00,,0832.3,5.01,0.00,29.5,28.4,00.0,38.7,31.2,11.6,0000.0,0006.70,0003.42,0003.02
2021-10-04 12:17:00,,0832.3,4.99,0.00,29.5,28.4,00.0,38.7,31.1,11.6,0000.0,0007.40,0003.41,0003.01
2021-10-04 12:18:00,,0832.3,4.99,0.00,29.5,28.4,00.0,38.7,31.2,11.6,0000.0,0007.96,0003.41,0003.00
2021-10-04 12:19:00,,0832.3,5.00,0.00,29.5,28.4,00.0,38.7,31.2,11.6,0000.0,0007.98,0003.39,0003.00
2021-10-04 12:20:00,,0832.3,5.00,0.00,29.5,28.4,00.0,38.7,31.2,11.6,0000.0,0008.29,0003.41,0003.01
2021-10-04 12:21:00,,0832.3,5.01,0.00,29.5,28.4,00.0,38.7,31.2,11.6,0000.0,0008.21,0003.42,0003.01
2021-10-04 12:22:00,,0832.4,5.01,0.00,29.5,28.4,00.0,38.7,31.2,11.6,0000.0,0007.97,0003.39,0003.02
2021-10-04 12:23:00,,0832.4,5.01,0.00,29.5,28.4,00.0,38.7,31.2,11.5,0001.6,0007.87,0003.41,0003.04
2021-10-04 12:24:00,,0832.3,5.00,0.00,29.5,28.4,00.0,38.7,31.2,11.6,0000.6,0007.67,0003.40,0003.02
2021-10-04 12:25:00,,0832.3,5.00,0.00,29.5,28.4,00.0,38.7,31.2,11.5,0000.0,0007.80,0003.42,0003.01
2021-10-04 12:26:00,,0832.3,5.00,0.00,29.5,28.4,00.0,38.7,31.2,11.5,0000.0,0008.22,0003.41,0003.02
2021-10-04 12:27:00,,0832.4,4.99,0.00,29.5,28.4,00.0,38.7,31.2,11.5,0000.0,0008.10,0003.40,0003.01
2021-10-04 12:28:00,,0832.3,5.00,0.00,29.5,28.4,00.0,38.7,31.1,11.5,0000.0,0007.54,0003.37,0003.01
2021-10-04 12:29:00,,0832.3,5.00,0.00,29.5,28.4,00.0,38.7,31.1,11.5,0000.3,0006.84,0003.37,0003.02
2021-10-04 12:30:00,,0832.3,5.00,0.00,29.5,28.4,00.0,38.7,31.2,11.5,0000.8,0006.84,0003.40,0003.04
2021-10-04 12:31:00,,0832.3,4.99,0.00,29.5,28.4,00.0,38.7,31.2,11.5,0001.0,0006.38,0003.40,0003.04
2021-10-04 12:32:00,,0832.3,5.01,0.00,29.5,28.4,00.0,38.7,31.2,11.6,0000.0,0006.30,0003.38,0003.02
2021-10-04 12:33:00,,0832.3,5.00,0.00,29.5,28.4,00.0,38.7,31.1,11.6,0000.1,0006.33,0003.37,0003.03
2021-10-04 12:34:00,,0832.3,5.00,0.00,29.5,28.3,00.0,38.7,31.1,11.7,0000.0,0006.21,0003.33,0003.02
2021-10-04 12:35:00,,0832.3,5.00,0.00,29.5,28.4,00.0,38.7,31.2,11.7,0000.0,0006.07,0003.31,0003.03
2021-10-04 12:36:00,,0832.3,5.01,0.00,29.5,28.4,00.0,38.7,31.2,11.7,0000.0,0005.86,0003.30,0003.04
2021-10-04 12:37:00,,0832.3,5.00,0.00,29.5,28.4,00.0,38.7,31.1,11.6,0000.0,0005.07,0003.29,0003.04
2021-10-04 12:38:00,,0832.3,5.00,0.00,29.5,28.4,00.0,38.7,31.2,11.6,0000.0,0004.93,0003.29,0003.05
2021-10-04 12:39:00,,0832.3,5.01,0.00,29.5,28.4,00.0,38.6,31.2,11.6,0000.0,0004.86,0003.28,0003.04
2021-10-04 12:40:00,,0832.4,5.00,0.00,29.5,28.4,00.0,38.6,31.2,11.6,0000.0,0004.83,0003.27,0003.03
2021-10-04 12:41:00,,0832.4,5.00,0.00,29.5,28.4,00.0,38.6,31.1,11.5,0000.0,0004.79,0003.26,0003.02
2021-10-04 12:42:00,,0832.4,4.99,0.00,29.5,28.3,00.0,38.6,31.2,11.6,0000.0,0005.17,0003.26,0003.01
2021-10-04 12:43:00,,0832.4,5.00,0.00,29.5,28.4,00.0,38.7,31.2,11.6,0000.0,0005.36,0003.26,0003.03
2021-10-04 12:44:00,,0832.5,5.00,0.00,29.5,28.4,00.0,38.6,31.2,11.7,0000.0,0005.31,0003.26,0003.03
2021-10-04 12:45:00,,0832.4,5.01,0.00,29.5,28.4,00.0,38.6,31.2,11.7,0000.1,0005.51,0003.27,0003.03
2021-10-04 12:46:00,,0832.4,5.00,0.00,29.5,28.4,00.0,38.6,31.1,11.7,-000.0,0006.05,0003.29,0003.03
2021-10-04 12:47:00,,0832.5,5.01,0.00,29.5,28.4,00.0,38.6,31.1,11.8,-000.2,0006.35,0003.32,0003.03
2021-10-04 12:48:00,,0832.5,5.01,0.00,29.4,28.3,00.0,38.6,31.1,11.8,-000.5,0006.48,0003.33,0003.03
2021-10-04 12:49:00,,0832.5,4.99,0.00,29.4,28.3,00.0,38.6,31.1,11.8,-000.5,0006.47,0003.33,0003.03
2021-10-04 12:50:00,,0832.5,5.00,0.00,29.5,28.3,00.0,38.6,31.1,11.8,0000.0,0006.80,0003.34,0003.03
2021-10-04 12:51:00,,0832.5,5.00,0.00,29.5,28.4,00.0,38.6,31.2,11.8,0000.0,0007.91,0003.36,0003.06
2021-10-04 12:52:00,,0832.5,5.00,0.00,29.5,28.4,00.0,38.6,31.2,11.8,0000.0,0007.92,0003.36,0003.06
2021-10-04 12:53:00,,0832.5,5.00,0.00,29.4,28.3,00.0,38.6,31.1,11.8,0000.0,0007.66,0003.36,0003.06
2021-10-04 12:54:00,,0832.5,5.00,0.00,29.4,28.3,00.0,38.6,31.1,11.9,0000.0,0007.56,0003.36,0003.06
2021-10-04 12:55:00,,0832.5,5.01,0.00,29.4,28.3,00.0,38.6,31.1,11.9,-000.1,0007.54,0003.35,0003.06
2021-10-04 12:56:00,,0832.5,5.00,0.00,29.4,28.4,00.0,38.6,31.1,11.9,-000.1,0007.43,0003.35,0003.05
2021-10-04 12:57:00,,0832.5,4.98,0.00,29.4,28.4,00.0,38.6,31.2,12.0,0000.0,0007.15,0003.36,0003.03
2021-10-04 12:58:00,,0832.6,5.01,0.00,29.5,28.4,00.0,38.6,31.2,12.0,0000.0,0006.81,0003.32,0003.01
2021-10-04 12:59:00,,0832.6,5.01,0.00,29.5,28.4,00.0,38.6,31.1,12.0,0000.0,0006.73,0003.30,0003.00
